Hourly Weather Roundup
Issued by NWS Central Illinois

Home | Current Version | Previous Version | Text Only | Print | Product List | Glossary On
Versions: 1 2 3 4 5 6 7 8 9 10 11 12 13 14 15 16 17 18 19 20 21 22 23 24 25 26 27 28 29 30 31 32 33 34 35 36 37 38 39 40 41 42 43 44 45 46 47 48 49 50
000
NZUS43 KILX 220910
HWRILX

AREA WEATHER ROUNDUP
NATIONAL WEATHER SERVICE, LINCOLN IL
400 AM CDT TUE JUL 22 2014


CITY           SKY/WX    TMP DP  RH WIND       PRES   REMARKS
BLOOMINGTON    CLEAR     65  62  90 S7        30.09F
CHAMPAIGN      CLEAR     64  62  93 S6        30.10R FOG
DECATUR        CLEAR     67  63  87 S3        30.09R
FLORA          FOG       63  63 100 CALM      30.10R VSB 1/2
GALESBURG      CLEAR     70  67  89 S8        30.03F
JACKSONVILLE   CLEAR     72  67  83 S7        30.06F
LACON          CLEAR     69  64  83 S3        30.04S
LAWRENCEVILLE  CLEAR     66  65  96 CALM      30.09R FOG
LITCHFIELD     CLEAR     65  63  94 CALM      30.08S
$$


CITY           SKY/WX    TMP DP  RH WIND       PRES   REMARKS
LINCOLN        CLEAR     66  64  91 CALM      30.05S
MACOMB         CLEAR     69  67  92 S7        30.06R
MATTOON        CLEAR     66  64  93 S3        30.09R
MT CARMEL AP   FOG       64  63  94 CALM      30.09R VSB 1
OLNEY-NOBLE AP CLEAR     61  61 100 CALM      30.10R FOG
PARIS          CLEAR     61  60  98 CALM      30.10S FOG
PEORIA         CLEAR     72  65  78 S8        30.06S
PONTIAC        CLEAR     64  64 100 SE3       30.06F FOG
RANTOUL        FOG       64  61  90 CALM      30.10S VSB 1
ROBINSON       FOG       63  63  99 CALM      30.10S VSB 1/2
SPRINGFIELD    CLEAR     72  65  78 S8        30.06F
TAYLORVILLE    CLEAR     63  61  94 S5        30.08S
$$

...REGIONAL REPORTS...


CITY           SKY/WX    TMP DP  RH WIND       PRES   REMARKS
CHICAGO O`HARE CLEAR     71  62  73 S7        30.05S
KANKAKEE       CLEAR     64  63  96 S3        30.08S
MOLINE         CLEAR     74  66  76 S9        30.00S
MOUNT VERNON   CLEAR     63  59  88 CALM      30.10S
PITTSFIELD     CLEAR     69  66  88 S5        30.06S FOG
QUINCY         CLEAR     71  67  87 S8        30.04S
ROCKFORD       PTCLDY    70  65  84 S8        30.03F
$$


CITY           SKY/WX    TMP DP  RH WIND       PRES   REMARKS
BURLINGTON     CLEAR     73  68  84 S10       30.01S
CEDAR RAPIDS   PTCLDY    74  67  78 S12       29.95F
DES MOINES     CLOUDY    81  74  79 S13       29.90S HX  86
KIRKSVILLE     PTCLDY    73  68  84 S7        30.02S
OTTUMWA        CLEAR     74  68  81 S10       29.97S
ST LOUIS       CLEAR     75  65  70 SW6       30.08S
$$


CITY           SKY/WX    TMP DP  RH WIND       PRES   REMARKS
TERRE HAUTE    CLEAR     64  62  93 CALM      30.10R FOG
EVANSVILLE     CLEAR     69  66  90 CALM      30.08R FOG
INDIANAPOLIS   CLEAR     70  62  76 CALM      30.09S
LAFAYETTE      PTCLDY    63  63 100 CALM      30.09S FOG
MADISON        CLEAR     75  68  78 S12       29.99S
MILWAUKEE      CLEAR     71  65  81 SW7       30.01F
$$





USA.gov is the U.S. government's official web portal to all federal, state and local government web resources and services.